Regional Weather Roundup
Issued by NWS

Home | Current Version | Previous Version | Text Only | Print | Product List | Glossary On
Versions: 1 2 3 4 5 6 7 8 9 10 11 12 13 14 15 16 17 18 19 20 21 22 23 24 25 26 27 28 29 30 31 32 33 34 35 36 37 38 39 40 41 42 43 44 45 46 47 48 49 50
000
ASUS43 KFSD 110810
RWRSD

WEATHER ROUNDUP FOR SOUTH DAKOTA
NATIONAL WEATHER SERVICE SIOUX FALLS SD
200 AM CST SUN DEC 11 2016

NOTE: "FAIR" INDICATES FEW OR NO CLOUDS BELOW 12,000 FEET WITH NO
SIGNIFICANT WEATHER AND/OR OBSTRUCTIONS TO VISIBILITY.


SDZ001>005-009-010-012>017-110900-
NORTHWEST AND NORTH CENTRAL SOUTH DAKOTA

CITY           SKY/WX    TMP DP  RH WIND       PRES   REMARKS
BUFFALO          N/A      6   0  76 W3        29.72S
FAITH            N/A      3   0  87 NW7       29.84R WCI  -9
MOBRIDGE       LGT SNOW   6   0  76 N7        29.88S WCI  -6
$$

SDZ012>016-024>037-041>051-057-063-072>074-110900-
SOUTHWEST AND SOUTH CENTRAL SOUTH DAKOTA

CITY           SKY/WX    TMP DP  RH WIND       PRES   REMARKS
RAPID CTY ARPT CLOUDY     7   2  80 SE3       29.79R
PIERRE         CLOUDY    10   5  80 N10       29.84R WCI  -4
CUSTER         CLOUDY    28  19  69 NW8       29.68R WCI  20
ELLSWORTH AFB  CLOUDY     6   2  84 SW1       29.78R
PHILIP         CLOUDY     8   4  83 NW8       29.87R WCI  -4
PINE RIDGE     CLOUDY     7   5  91 W6        29.82R WCI  -3
SPEARFISH      MOCLDY    27  16  63 W12       29.77R WCI  16
WINNER         CLOUDY    23  20  88 N8        29.75S WCI  14
$$

SDZ004>011-016>023-039-040-110900-
NORTHEAST SOUTH DAKOTA

CITY           SKY/WX    TMP DP  RH WIND       PRES   REMARKS
ABERDEEN       LGT SNOW  11   5  77 NE8       29.93F WCI  -1
WATERTOWN      SNOW      10   6  84 E12       29.85F VSB 1/2 WCI  -5
BROOKINGS      LGT SNOW  12  10  92 MISG      29.83  FOG
SISSETON         N/A     11   7  84 E5        29.96F WCI   3
$$

SDZ017-020-022-023-036>040-048>070-110900-
SOUTHEAST SOUTH DAKOTA

CITY           SKY/WX    TMP DP  RH WIND       PRES   REMARKS
SIOUX FALLS    CLOUDY    22  19  89 SE16      29.82F WCI   8
HURON          LGT SNOW  18  16  92 E8        29.85S FOG     WCI   8
CHAMBERLAIN    CLOUDY    23  21  92 NE5       29.78R WCI  17
MITCHELL       CLOUDY    23  20  88 E12       29.80F WCI  12
YANKTON        CLOUDY    25  19  80 E10G16    29.78F WCI  15
$$

ABBREVIATIONS USED IN REMARKS
   TC - TEMPERATURE IN CELSIUS
  WCI - WIND CHILL INDEX
   HX - HEAT INDEX
  VSB - VISIBILITY




USA.gov is the U.S. government's official web portal to all federal, state and local government web resources and services.